Index of /20260502/WXO-DD/model_rdps/10km/06/065
Name Last modified Size Description
Parent Directory -
20260502T06Z_MSC_RDPS_AbsoluteVorticity_IsbL-0250_RLatLon0.09_PT065H.grib2 2026-05-02 08:58 617K
20260502T06Z_MSC_RDPS_AbsoluteVorticity_IsbL-0500_RLatLon0.09_PT065H.grib2 2026-05-02 08:58 570K
20260502T06Z_MSC_RDPS_AbsoluteVorticity_IsbL-0700_RLatLon0.09_PT065H.grib2 2026-05-02 08:58 624K
20260502T06Z_MSC_RDPS_AbsoluteVorticity_IsbL-0850_RLatLon0.09_PT065H.grib2 2026-05-02 08:58 791K
20260502T06Z_MSC_RDPS_AirTemp_AGL-120m_RLatLon0.09_PT065H.grib2 2026-05-02 08:58 390K
20260502T06Z_MSC_RDPS_AirTemp_AGL-2m_RLatLon0.09_PT065H.grib2 2026-05-02 08:58 624K
20260502T06Z_MSC_RDPS_AirTemp_AGL-40m_RLatLon0.09_PT065H.grib2 2026-05-02 08:58 399K
20260502T06Z_MSC_RDPS_AirTemp_AGL-80m_RLatLon0.09_PT065H.grib2 2026-05-02 08:58 393K
20260502T06Z_MSC_RDPS_AirTemp_IsbL-0001_RLatLon0.09_PT065H.grib2 2026-05-02 08:58 315K
20260502T06Z_MSC_RDPS_AirTemp_IsbL-0005_RLatLon0.09_PT065H.grib2 2026-05-02 08:58 294K
20260502T06Z_MSC_RDPS_AirTemp_IsbL-0010_RLatLon0.09_PT065H.grib2 2026-05-02 08:58 302K
20260502T06Z_MSC_RDPS_AirTemp_IsbL-0020_RLatLon0.09_PT065H.grib2 2026-05-02 08:58 322K
20260502T06Z_MSC_RDPS_AirTemp_IsbL-0030_RLatLon0.09_PT065H.grib2 2026-05-02 08:58 340K
20260502T06Z_MSC_RDPS_AirTemp_IsbL-0050_RLatLon0.09_PT065H.grib2 2026-05-02 08:58 320K
20260502T06Z_MSC_RDPS_AirTemp_IsbL-0100_RLatLon0.09_PT065H.grib2 2026-05-02 08:58 435K
20260502T06Z_MSC_RDPS_AirTemp_IsbL-0150_RLatLon0.09_PT065H.grib2 2026-05-02 08:58 423K
20260502T06Z_MSC_RDPS_AirTemp_IsbL-0175_RLatLon0.09_PT065H.grib2 2026-05-02 08:58 414K
20260502T06Z_MSC_RDPS_AirTemp_IsbL-0200_RLatLon0.09_PT065H.grib2 2026-05-02 08:58 417K
20260502T06Z_MSC_RDPS_AirTemp_IsbL-0225_RLatLon0.09_PT065H.grib2 2026-05-02 08:58 421K
20260502T06Z_MSC_RDPS_AirTemp_IsbL-0250_RLatLon0.09_PT065H.grib2 2026-05-02 08:58 427K
20260502T06Z_MSC_RDPS_AirTemp_IsbL-0275_RLatLon0.09_PT065H.grib2 2026-05-02 08:58 407K
20260502T06Z_MSC_RDPS_AirTemp_IsbL-0300_RLatLon0.09_PT065H.grib2 2026-05-02 08:58 413K
20260502T06Z_MSC_RDPS_AirTemp_IsbL-0350_RLatLon0.09_PT065H.grib2 2026-05-02 08:58 428K
20260502T06Z_MSC_RDPS_AirTemp_IsbL-0400_RLatLon0.09_PT065H.grib2 2026-05-02 08:58 432K
20260502T06Z_MSC_RDPS_AirTemp_IsbL-0450_RLatLon0.09_PT065H.grib2 2026-05-02 08:58 440K
20260502T06Z_MSC_RDPS_AirTemp_IsbL-0500_RLatLon0.09_PT065H.grib2 2026-05-02 08:58 452K
20260502T06Z_MSC_RDPS_AirTemp_IsbL-0550_RLatLon0.09_PT065H.grib2 2026-05-02 08:58 470K
20260502T06Z_MSC_RDPS_AirTemp_IsbL-0600_RLatLon0.09_PT065H.grib2 2026-05-02 08:58 451K
20260502T06Z_MSC_RDPS_AirTemp_IsbL-0650_RLatLon0.09_PT065H.grib2 2026-05-02 08:58 465K
20260502T06Z_MSC_RDPS_AirTemp_IsbL-0700_RLatLon0.09_PT065H.grib2 2026-05-02 08:58 382K
20260502T06Z_MSC_RDPS_AirTemp_IsbL-0750_RLatLon0.09_PT065H.grib2 2026-05-02 08:58 412K
20260502T06Z_MSC_RDPS_AirTemp_IsbL-0800_RLatLon0.09_PT065H.grib2 2026-05-02 08:58 456K
20260502T06Z_MSC_RDPS_AirTemp_IsbL-0850_RLatLon0.09_PT065H.grib2 2026-05-02 08:58 507K
20260502T06Z_MSC_RDPS_AirTemp_IsbL-0875_RLatLon0.09_PT065H.grib2 2026-05-02 08:58 526K
20260502T06Z_MSC_RDPS_AirTemp_IsbL-0900_RLatLon0.09_PT065H.grib2 2026-05-02 08:58 533K
20260502T06Z_MSC_RDPS_AirTemp_IsbL-0925_RLatLon0.09_PT065H.grib2 2026-05-02 08:58 527K
20260502T06Z_MSC_RDPS_AirTemp_IsbL-0950_RLatLon0.09_PT065H.grib2 2026-05-02 08:58 523K
20260502T06Z_MSC_RDPS_AirTemp_IsbL-0970_RLatLon0.09_PT065H.grib2 2026-05-02 08:58 514K
20260502T06Z_MSC_RDPS_AirTemp_IsbL-0985_RLatLon0.09_PT065H.grib2 2026-05-02 08:58 501K
20260502T06Z_MSC_RDPS_AirTemp_IsbL-1000_RLatLon0.09_PT065H.grib2 2026-05-02 08:58 489K
20260502T06Z_MSC_RDPS_AirTemp_IsbL-1015_RLatLon0.09_PT065H.grib2 2026-05-02 08:58 491K
20260502T06Z_MSC_RDPS_Albedo_Sfc_RLatLon0.09_PT065H.grib2 2026-05-02 08:58 152K
20260502T06Z_MSC_RDPS_CAPE_Sfc_RLatLon0.09_PT065H.grib2 2026-05-02 08:58 1.8M
20260502T06Z_MSC_RDPS_CIN_Sfc_RLatLon0.09_PT065H.grib2 2026-05-02 08:58 1.3M
20260502T06Z_MSC_RDPS_CloudWater_EAtm_RLatLon0.09_PT065H.grib2 2026-05-02 08:58 225K
20260502T06Z_MSC_RDPS_ConvectivePrecip-Accum_Sfc_RLatLon0.09_PT065H.grib2 2026-05-02 08:58 1.2M
20260502T06Z_MSC_RDPS_DewPointDepression_AGL-2m_RLatLon0.09_PT065H.grib2 2026-05-02 08:58 420K
20260502T06Z_MSC_RDPS_DewPointDepression_IsbL-0001_RLatLon0.09_PT065H.grib2 2026-05-02 08:58 193
20260502T06Z_MSC_RDPS_DewPointDepression_IsbL-0005_RLatLon0.09_PT065H.grib2 2026-05-02 08:58 193
20260502T06Z_MSC_RDPS_DewPointDepression_IsbL-0010_RLatLon0.09_PT065H.grib2 2026-05-02 08:58 193
20260502T06Z_MSC_RDPS_DewPointDepression_IsbL-0020_RLatLon0.09_PT065H.grib2 2026-05-02 08:58 193
20260502T06Z_MSC_RDPS_DewPointDepression_IsbL-0030_RLatLon0.09_PT065H.grib2 2026-05-02 08:58 193
20260502T06Z_MSC_RDPS_DewPointDepression_IsbL-0050_RLatLon0.09_PT065H.grib2 2026-05-02 08:58 88K
20260502T06Z_MSC_RDPS_DewPointDepression_IsbL-0100_RLatLon0.09_PT065H.grib2 2026-05-02 08:58 120K
20260502T06Z_MSC_RDPS_DewPointDepression_IsbL-0150_RLatLon0.09_PT065H.grib2 2026-05-02 08:58 147K
20260502T06Z_MSC_RDPS_DewPointDepression_IsbL-0175_RLatLon0.09_PT065H.grib2 2026-05-02 08:58 184K
20260502T06Z_MSC_RDPS_DewPointDepression_IsbL-0200_RLatLon0.09_PT065H.grib2 2026-05-02 08:58 224K
20260502T06Z_MSC_RDPS_DewPointDepression_IsbL-0225_RLatLon0.09_PT065H.grib2 2026-05-02 08:58 266K
20260502T06Z_MSC_RDPS_DewPointDepression_IsbL-0250_RLatLon0.09_PT065H.grib2 2026-05-02 08:58 305K
20260502T06Z_MSC_RDPS_DewPointDepression_IsbL-0275_RLatLon0.09_PT065H.grib2 2026-05-02 08:58 311K
20260502T06Z_MSC_RDPS_DewPointDepression_IsbL-0300_RLatLon0.09_PT065H.grib2 2026-05-02 08:58 327K
20260502T06Z_MSC_RDPS_DewPointDepression_IsbL-0350_RLatLon0.09_PT065H.grib2 2026-05-02 08:58 328K
20260502T06Z_MSC_RDPS_DewPointDepression_IsbL-0400_RLatLon0.09_PT065H.grib2 2026-05-02 08:58 343K
20260502T06Z_MSC_RDPS_DewPointDepression_IsbL-0450_RLatLon0.09_PT065H.grib2 2026-05-02 08:58 348K
20260502T06Z_MSC_RDPS_DewPointDepression_IsbL-0500_RLatLon0.09_PT065H.grib2 2026-05-02 08:58 351K
20260502T06Z_MSC_RDPS_DewPointDepression_IsbL-0550_RLatLon0.09_PT065H.grib2 2026-05-02 08:58 361K
20260502T06Z_MSC_RDPS_DewPointDepression_IsbL-0600_RLatLon0.09_PT065H.grib2 2026-05-02 08:58 373K
20260502T06Z_MSC_RDPS_DewPointDepression_IsbL-0650_RLatLon0.09_PT065H.grib2 2026-05-02 08:58 386K
20260502T06Z_MSC_RDPS_DewPointDepression_IsbL-0700_RLatLon0.09_PT065H.grib2 2026-05-02 08:58 400K
20260502T06Z_MSC_RDPS_DewPointDepression_IsbL-0750_RLatLon0.09_PT065H.grib2 2026-05-02 08:58 417K
20260502T06Z_MSC_RDPS_DewPointDepression_IsbL-0800_RLatLon0.09_PT065H.grib2 2026-05-02 08:58 450K
20260502T06Z_MSC_RDPS_DewPointDepression_IsbL-0850_RLatLon0.09_PT065H.grib2 2026-05-02 08:58 482K
20260502T06Z_MSC_RDPS_DewPointDepression_IsbL-0875_RLatLon0.09_PT065H.grib2 2026-05-02 08:58 480K
20260502T06Z_MSC_RDPS_DewPointDepression_IsbL-0900_RLatLon0.09_PT065H.grib2 2026-05-02 08:58 467K
20260502T06Z_MSC_RDPS_DewPointDepression_IsbL-0925_RLatLon0.09_PT065H.grib2 2026-05-02 08:58 454K
20260502T06Z_MSC_RDPS_DewPointDepression_IsbL-0950_RLatLon0.09_PT065H.grib2 2026-05-02 08:58 445K
20260502T06Z_MSC_RDPS_DewPointDepression_IsbL-0970_RLatLon0.09_PT065H.grib2 2026-05-02 08:58 436K
20260502T06Z_MSC_RDPS_DewPointDepression_IsbL-0985_RLatLon0.09_PT065H.grib2 2026-05-02 08:58 431K
20260502T06Z_MSC_RDPS_DewPointDepression_IsbL-1000_RLatLon0.09_PT065H.grib2 2026-05-02 08:58 427K
20260502T06Z_MSC_RDPS_DewPointDepression_IsbL-1015_RLatLon0.09_PT065H.grib2 2026-05-02 08:58 419K
20260502T06Z_MSC_RDPS_DewPoint_AGL-2m_RLatLon0.09_PT065H.grib2 2026-05-02 08:58 309K
20260502T06Z_MSC_RDPS_DownwardLongwaveRadiationFlux-Accum_Sfc_RLatLon0.09_PT065H.grib2 2026-05-02 08:58 416K
20260502T06Z_MSC_RDPS_DownwardShortwaveRadiationFlux-Accum_NTAtm_RLatLon0.09_PT065H.grib2 2026-05-02 08:58 109K
20260502T06Z_MSC_RDPS_DownwardShortwaveRadiationFlux-Accum_Sfc_RLatLon0.09_PT065H.grib2 2026-05-02 08:58 618K
20260502T06Z_MSC_RDPS_FreezingRain-Accum1h_Sfc_RLatLon0.09_PT065H.grib2 2026-05-02 08:58 16K
20260502T06Z_MSC_RDPS_FreezingRain-Accum_Sfc_RLatLon0.09_PT065H.grib2 2026-05-02 08:58 188K
20260502T06Z_MSC_RDPS_GeopotentialHeight_IsbL-0001_RLatLon0.09_PT065H.grib2 2026-05-02 08:58 319K
20260502T06Z_MSC_RDPS_GeopotentialHeight_IsbL-0005_RLatLon0.09_PT065H.grib2 2026-05-02 08:58 341K
20260502T06Z_MSC_RDPS_GeopotentialHeight_IsbL-0010_RLatLon0.09_PT065H.grib2 2026-05-02 08:58 308K
20260502T06Z_MSC_RDPS_GeopotentialHeight_IsbL-0020_RLatLon0.09_PT065H.grib2 2026-05-02 08:58 405K
20260502T06Z_MSC_RDPS_GeopotentialHeight_IsbL-0030_RLatLon0.09_PT065H.grib2 2026-05-02 08:58 407K
20260502T06Z_MSC_RDPS_GeopotentialHeight_IsbL-0050_RLatLon0.09_PT065H.grib2 2026-05-02 08:58 312K
20260502T06Z_MSC_RDPS_GeopotentialHeight_IsbL-0100_RLatLon0.09_PT065H.grib2 2026-05-02 08:58 290K
20260502T06Z_MSC_RDPS_GeopotentialHeight_IsbL-0150_RLatLon0.09_PT065H.grib2 2026-05-02 08:58 234K
20260502T06Z_MSC_RDPS_GeopotentialHeight_IsbL-0175_RLatLon0.09_PT065H.grib2 2026-05-02 08:58 236K
20260502T06Z_MSC_RDPS_GeopotentialHeight_IsbL-0200_RLatLon0.09_PT065H.grib2 2026-05-02 08:58 238K
20260502T06Z_MSC_RDPS_GeopotentialHeight_IsbL-0225_RLatLon0.09_PT065H.grib2 2026-05-02 08:58 271K
20260502T06Z_MSC_RDPS_GeopotentialHeight_IsbL-0250_RLatLon0.09_PT065H.grib2 2026-05-02 08:58 271K
20260502T06Z_MSC_RDPS_GeopotentialHeight_IsbL-0275_RLatLon0.09_PT065H.grib2 2026-05-02 08:58 238K
20260502T06Z_MSC_RDPS_GeopotentialHeight_IsbL-0300_RLatLon0.09_PT065H.grib2 2026-05-02 08:58 238K
20260502T06Z_MSC_RDPS_GeopotentialHeight_IsbL-0350_RLatLon0.09_PT065H.grib2 2026-05-02 08:58 234K
20260502T06Z_MSC_RDPS_GeopotentialHeight_IsbL-0400_RLatLon0.09_PT065H.grib2 2026-05-02 08:58 304K
20260502T06Z_MSC_RDPS_GeopotentialHeight_IsbL-0450_RLatLon0.09_PT065H.grib2 2026-05-02 08:58 299K
20260502T06Z_MSC_RDPS_GeopotentialHeight_IsbL-0500_RLatLon0.09_PT065H.grib2 2026-05-02 08:58 295K
20260502T06Z_MSC_RDPS_GeopotentialHeight_IsbL-0550_RLatLon0.09_PT065H.grib2 2026-05-02 08:58 292K
20260502T06Z_MSC_RDPS_GeopotentialHeight_IsbL-0600_RLatLon0.09_PT065H.grib2 2026-05-02 08:58 262K
20260502T06Z_MSC_RDPS_GeopotentialHeight_IsbL-0650_RLatLon0.09_PT065H.grib2 2026-05-02 08:58 259K
20260502T06Z_MSC_RDPS_GeopotentialHeight_IsbL-0700_RLatLon0.09_PT065H.grib2 2026-05-02 08:58 341K
20260502T06Z_MSC_RDPS_GeopotentialHeight_IsbL-0750_RLatLon0.09_PT065H.grib2 2026-05-02 08:58 342K
20260502T06Z_MSC_RDPS_GeopotentialHeight_IsbL-0800_RLatLon0.09_PT065H.grib2 2026-05-02 08:58 349K
20260502T06Z_MSC_RDPS_GeopotentialHeight_IsbL-0850_RLatLon0.09_PT065H.grib2 2026-05-02 08:58 358K
20260502T06Z_MSC_RDPS_GeopotentialHeight_IsbL-0875_RLatLon0.09_PT065H.grib2 2026-05-02 08:58 362K
20260502T06Z_MSC_RDPS_GeopotentialHeight_IsbL-0900_RLatLon0.09_PT065H.grib2 2026-05-02 08:58 365K
20260502T06Z_MSC_RDPS_GeopotentialHeight_IsbL-0925_RLatLon0.09_PT065H.grib2 2026-05-02 08:58 369K
20260502T06Z_MSC_RDPS_GeopotentialHeight_IsbL-0950_RLatLon0.09_PT065H.grib2 2026-05-02 08:58 283K
20260502T06Z_MSC_RDPS_GeopotentialHeight_IsbL-0970_RLatLon0.09_PT065H.grib2 2026-05-02 08:58 288K
20260502T06Z_MSC_RDPS_GeopotentialHeight_IsbL-0985_RLatLon0.09_PT065H.grib2 2026-05-02 08:58 295K
20260502T06Z_MSC_RDPS_GeopotentialHeight_IsbL-1000_RLatLon0.09_PT065H.grib2 2026-05-02 08:58 303K
20260502T06Z_MSC_RDPS_GeopotentialHeight_IsbL-1015_RLatLon0.09_PT065H.grib2 2026-05-02 08:58 314K
20260502T06Z_MSC_RDPS_Humidex_Sfc_RLatLon0.09_PT065H.grib2 2026-05-02 08:58 2.4M
20260502T06Z_MSC_RDPS_IcePellets-Accum1h_Sfc_RLatLon0.09_PT065H.grib2 2026-05-02 08:58 7.1K
20260502T06Z_MSC_RDPS_IcePellets-Accum_Sfc_RLatLon0.09_PT065H.grib2 2026-05-02 08:58 28K
20260502T06Z_MSC_RDPS_KIndex_Sfc_RLatLon0.09_PT065H.grib2 2026-05-02 08:58 2.5M
20260502T06Z_MSC_RDPS_LatentHeatNetFlux_Sfc_RLatLon0.09_PT065H.grib2 2026-05-02 08:58 383K
20260502T06Z_MSC_RDPS_LiftedIndex-MU-VT_IsbL-0500_RLatLon0.09_PT065H.grib2 2026-05-02 08:58 2.4M
20260502T06Z_MSC_RDPS_NetLongwaveRadiationFlux-Accum_Sfc_RLatLon0.09_PT065H.grib2 2026-05-02 08:58 600K
20260502T06Z_MSC_RDPS_NetShortwaveRadiationFlux-Accum_Sfc_RLatLon0.09_PT065H.grib2 2026-05-02 08:58 620K
20260502T06Z_MSC_RDPS_PlanetaryBoundaryLayerHeight_Sfc_RLatLon0.09_PT065H.grib2 2026-05-02 08:58 1.0M
20260502T06Z_MSC_RDPS_Precip-Accum1h_Sfc_RLatLon0.09_PT065H.grib2 2026-05-02 08:58 1.2M
20260502T06Z_MSC_RDPS_Precip-Accum_Sfc_RLatLon0.09_PT065H.grib2 2026-05-02 08:58 2.2M
20260502T06Z_MSC_RDPS_PrecipRate_Sfc_RLatLon0.09_PT065H.grib2 2026-05-02 08:58 184K
20260502T06Z_MSC_RDPS_PrecipType-Instant_Sfc_RLatLon0.09_PT065H.grib2 2026-05-02 08:58 586K
20260502T06Z_MSC_RDPS_Pressure-Trend3h_Sfc_RLatLon0.09_PT065H.grib2 2026-05-02 08:58 1.2M
20260502T06Z_MSC_RDPS_Pressure_MSL_RLatLon0.09_PT065H.grib2 2026-05-02 08:58 329K
20260502T06Z_MSC_RDPS_Pressure_PVU-1.5_RLatLon0.09_PT065H.grib2 2026-05-02 08:58 2.5M
20260502T06Z_MSC_RDPS_Pressure_PVU-1_RLatLon0.09_PT065H.grib2 2026-05-02 08:58 2.4M
20260502T06Z_MSC_RDPS_Pressure_PVU-2_RLatLon0.09_PT065H.grib2 2026-05-02 08:58 2.4M
20260502T06Z_MSC_RDPS_Pressure_Sfc_RLatLon0.09_PT065H.grib2 2026-05-02 08:58 498K
20260502T06Z_MSC_RDPS_RadiativeTemp_Sfc_RLatLon0.09_PT065H.grib2 2026-05-02 08:58 318K
20260502T06Z_MSC_RDPS_Rain-Accum1h_Sfc_RLatLon0.09_PT065H.grib2 2026-05-02 08:58 611K
20260502T06Z_MSC_RDPS_Rain-Accum_Sfc_RLatLon0.09_PT065H.grib2 2026-05-02 08:58 1.8M
20260502T06Z_MSC_RDPS_RelativeHumidity_AGL-2m_RLatLon0.09_PT065H.grib2 2026-05-02 08:58 1.0M
20260502T06Z_MSC_RDPS_RelativeHumidity_IsbL-0010_RLatLon0.09_PT065H.grib2 2026-05-02 08:58 506K
20260502T06Z_MSC_RDPS_RelativeHumidity_IsbL-0020_RLatLon0.09_PT065H.grib2 2026-05-02 08:58 732K
20260502T06Z_MSC_RDPS_RelativeHumidity_IsbL-0030_RLatLon0.09_PT065H.grib2 2026-05-02 08:58 602K
20260502T06Z_MSC_RDPS_RelativeHumidity_IsbL-0050_RLatLon0.09_PT065H.grib2 2026-05-02 08:58 262K
20260502T06Z_MSC_RDPS_RelativeHumidity_IsbL-0100_RLatLon0.09_PT065H.grib2 2026-05-02 08:58 287K
20260502T06Z_MSC_RDPS_RelativeHumidity_IsbL-0150_RLatLon0.09_PT065H.grib2 2026-05-02 08:58 419K
20260502T06Z_MSC_RDPS_RelativeHumidity_IsbL-0175_RLatLon0.09_PT065H.grib2 2026-05-02 08:58 482K
20260502T06Z_MSC_RDPS_RelativeHumidity_IsbL-0200_RLatLon0.09_PT065H.grib2 2026-05-02 08:58 559K
20260502T06Z_MSC_RDPS_RelativeHumidity_IsbL-0225_RLatLon0.09_PT065H.grib2 2026-05-02 08:58 629K
20260502T06Z_MSC_RDPS_RelativeHumidity_IsbL-0250_RLatLon0.09_PT065H.grib2 2026-05-02 08:58 695K
20260502T06Z_MSC_RDPS_RelativeHumidity_IsbL-0275_RLatLon0.09_PT065H.grib2 2026-05-02 08:58 713K
20260502T06Z_MSC_RDPS_RelativeHumidity_IsbL-0300_RLatLon0.09_PT065H.grib2 2026-05-02 08:58 750K
20260502T06Z_MSC_RDPS_RelativeHumidity_IsbL-0350_RLatLon0.09_PT065H.grib2 2026-05-02 08:58 771K
20260502T06Z_MSC_RDPS_RelativeHumidity_IsbL-0400_RLatLon0.09_PT065H.grib2 2026-05-02 08:58 791K
20260502T06Z_MSC_RDPS_RelativeHumidity_IsbL-0450_RLatLon0.09_PT065H.grib2 2026-05-02 08:58 797K
20260502T06Z_MSC_RDPS_RelativeHumidity_IsbL-0500_RLatLon0.09_PT065H.grib2 2026-05-02 08:58 797K
20260502T06Z_MSC_RDPS_RelativeHumidity_IsbL-0550_RLatLon0.09_PT065H.grib2 2026-05-02 08:58 812K
20260502T06Z_MSC_RDPS_RelativeHumidity_IsbL-0600_RLatLon0.09_PT065H.grib2 2026-05-02 08:58 834K
20260502T06Z_MSC_RDPS_RelativeHumidity_IsbL-0650_RLatLon0.09_PT065H.grib2 2026-05-02 08:58 853K
20260502T06Z_MSC_RDPS_RelativeHumidity_IsbL-0700_RLatLon0.09_PT065H.grib2 2026-05-02 08:58 883K
20260502T06Z_MSC_RDPS_RelativeHumidity_IsbL-0750_RLatLon0.09_PT065H.grib2 2026-05-02 08:58 929K
20260502T06Z_MSC_RDPS_RelativeHumidity_IsbL-0800_RLatLon0.09_PT065H.grib2 2026-05-02 08:58 1.0M
20260502T06Z_MSC_RDPS_RelativeHumidity_IsbL-0850_RLatLon0.09_PT065H.grib2 2026-05-02 08:58 1.0M
20260502T06Z_MSC_RDPS_RelativeHumidity_IsbL-0875_RLatLon0.09_PT065H.grib2 2026-05-02 08:58 1.1M
20260502T06Z_MSC_RDPS_RelativeHumidity_IsbL-0900_RLatLon0.09_PT065H.grib2 2026-05-02 08:58 1.1M
20260502T06Z_MSC_RDPS_RelativeHumidity_IsbL-0925_RLatLon0.09_PT065H.grib2 2026-05-02 08:58 1.1M
20260502T06Z_MSC_RDPS_RelativeHumidity_IsbL-0950_RLatLon0.09_PT065H.grib2 2026-05-02 08:58 1.1M
20260502T06Z_MSC_RDPS_RelativeHumidity_IsbL-0970_RLatLon0.09_PT065H.grib2 2026-05-02 08:58 1.0M
20260502T06Z_MSC_RDPS_RelativeHumidity_IsbL-0985_RLatLon0.09_PT065H.grib2 2026-05-02 08:58 1.0M
20260502T06Z_MSC_RDPS_RelativeHumidity_IsbL-1000_RLatLon0.09_PT065H.grib2 2026-05-02 08:58 1.0M
20260502T06Z_MSC_RDPS_RelativeHumidity_IsbL-1015_RLatLon0.09_PT065H.grib2 2026-05-02 08:58 1.0M
20260502T06Z_MSC_RDPS_Runoff-Accum_Sfc_RLatLon0.09_PT065H.grib2 2026-05-02 08:58 63K
20260502T06Z_MSC_RDPS_SWEATIndex_Sfc_RLatLon0.09_PT065H.grib2 2026-05-02 08:58 2.4M
20260502T06Z_MSC_RDPS_SeeingIndex_EAtm_RLatLon0.09_PT065H.grib2 2026-05-02 08:58 1.0M
20260502T06Z_MSC_RDPS_SensibleHeatNetFlux_Sfc_RLatLon0.09_PT065H.grib2 2026-05-02 08:58 255K
20260502T06Z_MSC_RDPS_ShowalterIndex_IsbL-0500_RLatLon0.09_PT065H.grib2 2026-05-02 08:58 2.6M
20260502T06Z_MSC_RDPS_SkyTransparencyIndex_EAtm_RLatLon0.09_PT065H.grib2 2026-05-02 08:58 721K
20260502T06Z_MSC_RDPS_Snow-Accum1h_Sfc_RLatLon0.09_PT065H.grib2 2026-05-02 08:58 447K
20260502T06Z_MSC_RDPS_Snow-Accum_Sfc_RLatLon0.09_PT065H.grib2 2026-05-02 08:58 767K
20260502T06Z_MSC_RDPS_SnowDensity_Sfc_RLatLon0.09_PT065H.grib2 2026-05-02 08:58 173K
20260502T06Z_MSC_RDPS_SnowDepth_Sfc_RLatLon0.09_PT065H.grib2 2026-05-02 08:58 654K
20260502T06Z_MSC_RDPS_SoilTemp_DBS-0to10cm_RLatLon0.09_PT065H.grib2 2026-05-02 08:58 247K
20260502T06Z_MSC_RDPS_SoilTemp_Sfc_RLatLon0.09_PT065H.grib2 2026-05-02 08:58 281K
20260502T06Z_MSC_RDPS_SoilVolumetricIceContent_Sfc_RLatLon0.09_PT065H.grib2 2026-05-02 08:58 154K
20260502T06Z_MSC_RDPS_SoilVolumetricWaterContent_DBS-0to10cm_RLatLon0.09_PT065H.grib2 2026-05-02 08:58 276K
20260502T06Z_MSC_RDPS_SoilVolumetricWaterContent_DBS-0to1cm_RLatLon0.09_PT065H.grib2 2026-05-02 08:58 341K
20260502T06Z_MSC_RDPS_SpecificHumidity_AGL-120m_RLatLon0.09_PT065H.grib2 2026-05-02 08:58 495K
20260502T06Z_MSC_RDPS_SpecificHumidity_AGL-2m_RLatLon0.09_PT065H.grib2 2026-05-02 08:58 667K
20260502T06Z_MSC_RDPS_SpecificHumidity_AGL-40m_RLatLon0.09_PT065H.grib2 2026-05-02 08:58 500K
20260502T06Z_MSC_RDPS_SpecificHumidity_AGL-80m_RLatLon0.09_PT065H.grib2 2026-05-02 08:58 496K
20260502T06Z_MSC_RDPS_SpecificHumidity_IsbL-0001_RLatLon0.09_PT065H.grib2 2026-05-02 08:58 407K
20260502T06Z_MSC_RDPS_SpecificHumidity_IsbL-0005_RLatLon0.09_PT065H.grib2 2026-05-02 08:58 363K
20260502T06Z_MSC_RDPS_SpecificHumidity_IsbL-0010_RLatLon0.09_PT065H.grib2 2026-05-02 08:58 397K
20260502T06Z_MSC_RDPS_SpecificHumidity_IsbL-0020_RLatLon0.09_PT065H.grib2 2026-05-02 08:58 372K
20260502T06Z_MSC_RDPS_SpecificHumidity_IsbL-0030_RLatLon0.09_PT065H.grib2 2026-05-02 08:58 369K
20260502T06Z_MSC_RDPS_SpecificHumidity_IsbL-0050_RLatLon0.09_PT065H.grib2 2026-05-02 08:58 447K
20260502T06Z_MSC_RDPS_SpecificHumidity_IsbL-0100_RLatLon0.09_PT065H.grib2 2026-05-02 08:58 427K
20260502T06Z_MSC_RDPS_SpecificHumidity_IsbL-0150_RLatLon0.09_PT065H.grib2 2026-05-02 08:58 457K
20260502T06Z_MSC_RDPS_SpecificHumidity_IsbL-0175_RLatLon0.09_PT065H.grib2 2026-05-02 08:58 445K
20260502T06Z_MSC_RDPS_SpecificHumidity_IsbL-0200_RLatLon0.09_PT065H.grib2 2026-05-02 08:58 481K
20260502T06Z_MSC_RDPS_SpecificHumidity_IsbL-0225_RLatLon0.09_PT065H.grib2 2026-05-02 08:58 484K
20260502T06Z_MSC_RDPS_SpecificHumidity_IsbL-0250_RLatLon0.09_PT065H.grib2 2026-05-02 08:58 531K
20260502T06Z_MSC_RDPS_SpecificHumidity_IsbL-0275_RLatLon0.09_PT065H.grib2 2026-05-02 08:58 486K
20260502T06Z_MSC_RDPS_SpecificHumidity_IsbL-0300_RLatLon0.09_PT065H.grib2 2026-05-02 08:58 457K
20260502T06Z_MSC_RDPS_SpecificHumidity_IsbL-0350_RLatLon0.09_PT065H.grib2 2026-05-02 08:58 573K
20260502T06Z_MSC_RDPS_SpecificHumidity_IsbL-0400_RLatLon0.09_PT065H.grib2 2026-05-02 08:58 531K
20260502T06Z_MSC_RDPS_SpecificHumidity_IsbL-0450_RLatLon0.09_PT065H.grib2 2026-05-02 08:58 581K
20260502T06Z_MSC_RDPS_SpecificHumidity_IsbL-0500_RLatLon0.09_PT065H.grib2 2026-05-02 08:58 510K
20260502T06Z_MSC_RDPS_SpecificHumidity_IsbL-0550_RLatLon0.09_PT065H.grib2 2026-05-02 08:58 564K
20260502T06Z_MSC_RDPS_SpecificHumidity_IsbL-0600_RLatLon0.09_PT065H.grib2 2026-05-02 08:58 633K
20260502T06Z_MSC_RDPS_SpecificHumidity_IsbL-0650_RLatLon0.09_PT065H.grib2 2026-05-02 08:58 556K
20260502T06Z_MSC_RDPS_SpecificHumidity_IsbL-0700_RLatLon0.09_PT065H.grib2 2026-05-02 08:58 605K
20260502T06Z_MSC_RDPS_SpecificHumidity_IsbL-0750_RLatLon0.09_PT065H.grib2 2026-05-02 08:58 658K
20260502T06Z_MSC_RDPS_SpecificHumidity_IsbL-0800_RLatLon0.09_PT065H.grib2 2026-05-02 08:58 740K
20260502T06Z_MSC_RDPS_SpecificHumidity_IsbL-0850_RLatLon0.09_PT065H.grib2 2026-05-02 08:58 820K
20260502T06Z_MSC_RDPS_SpecificHumidity_IsbL-0875_RLatLon0.09_PT065H.grib2 2026-05-02 08:58 845K
20260502T06Z_MSC_RDPS_SpecificHumidity_IsbL-0900_RLatLon0.09_PT065H.grib2 2026-05-02 08:58 715K
20260502T06Z_MSC_RDPS_SpecificHumidity_IsbL-0925_RLatLon0.09_PT065H.grib2 2026-05-02 08:58 716K
20260502T06Z_MSC_RDPS_SpecificHumidity_IsbL-0950_RLatLon0.09_PT065H.grib2 2026-05-02 08:58 714K
20260502T06Z_MSC_RDPS_SpecificHumidity_IsbL-0970_RLatLon0.09_PT065H.grib2 2026-05-02 08:58 705K
20260502T06Z_MSC_RDPS_SpecificHumidity_IsbL-0985_RLatLon0.09_PT065H.grib2 2026-05-02 08:58 697K
20260502T06Z_MSC_RDPS_SpecificHumidity_IsbL-1000_RLatLon0.09_PT065H.grib2 2026-05-02 08:58 692K
20260502T06Z_MSC_RDPS_SpecificHumidity_IsbL-1015_RLatLon0.09_PT065H.grib2 2026-05-02 08:58 682K
20260502T06Z_MSC_RDPS_SpecificHumidity_Sfc_RLatLon0.09_PT065H.grib2 2026-05-02 08:58 342K
20260502T06Z_MSC_RDPS_StormRelativeHelicity_EtaL-10000_RLatLon0.09_PT065H.grib2 2026-05-02 08:58 1.1M
20260502T06Z_MSC_RDPS_StormSeverityIndex_EtaL-10000_RLatLon0.09_PT065H.grib2 2026-05-02 08:58 1.2M
20260502T06Z_MSC_RDPS_Thickness_IsbL-0850to0700_RLatLon0.09_PT065H.grib2 2026-05-02 08:58 178K
20260502T06Z_MSC_RDPS_Thickness_IsbL-1000to0500_RLatLon0.09_PT065H.grib2 2026-05-02 08:58 200K
20260502T06Z_MSC_RDPS_Thickness_IsbL-1000to0850_RLatLon0.09_PT065H.grib2 2026-05-02 08:58 186K
20260502T06Z_MSC_RDPS_TotalCloudCover_Sfc_RLatLon0.09_PT065H.grib2 2026-05-02 08:58 661K
20260502T06Z_MSC_RDPS_TotalTotalsIndex_Sfc_RLatLon0.09_PT065H.grib2 2026-05-02 08:58 2.4M
20260502T06Z_MSC_RDPS_UVIndex-ClearSky_Sfc_RLatLon0.09_PT065H.grib2 2026-05-02 08:58 203K
20260502T06Z_MSC_RDPS_UVIndex_Sfc_RLatLon0.09_PT065H.grib2 2026-05-02 08:58 449K
20260502T06Z_MSC_RDPS_UpwardLongwaveRadiationFlux_NTAtm_RLatLon0.09_PT065H.grib2 2026-05-02 08:58 498K
20260502T06Z_MSC_RDPS_UpwardShortwaveRadiationFlux_NTAtm_RLatLon0.09_PT065H.grib2 2026-05-02 08:58 399K
20260502T06Z_MSC_RDPS_VerticalVelocity_IsbL-0250_RLatLon0.09_PT065H.grib2 2026-05-02 08:58 563K
20260502T06Z_MSC_RDPS_VerticalVelocity_IsbL-0500_RLatLon0.09_PT065H.grib2 2026-05-02 08:58 553K
20260502T06Z_MSC_RDPS_VerticalVelocity_IsbL-0700_RLatLon0.09_PT065H.grib2 2026-05-02 08:58 605K
20260502T06Z_MSC_RDPS_VerticalVelocity_IsbL-0850_RLatLon0.09_PT065H.grib2 2026-05-02 08:58 705K
20260502T06Z_MSC_RDPS_VerticalWindShear_EtaL-6500_RLatLon0.09_PT065H.grib2 2026-05-02 08:58 1.2M
20260502T06Z_MSC_RDPS_WindChill_Sfc_RLatLon0.09_PT065H.grib2 2026-05-02 08:58 1.1M
20260502T06Z_MSC_RDPS_WindDir_AGL-10m_RLatLon0.09_PT065H.grib2 2026-05-02 08:58 947K
20260502T06Z_MSC_RDPS_WindDir_AGL-120m_RLatLon0.09_PT065H.grib2 2026-05-02 08:58 596K
20260502T06Z_MSC_RDPS_WindDir_AGL-40m_RLatLon0.09_PT065H.grib2 2026-05-02 08:58 617K
20260502T06Z_MSC_RDPS_WindDir_AGL-80m_RLatLon0.09_PT065H.grib2 2026-05-02 08:58 605K
20260502T06Z_MSC_RDPS_WindDir_IsbL-0001_RLatLon0.09_PT065H.grib2 2026-05-02 08:58 284K
20260502T06Z_MSC_RDPS_WindDir_IsbL-0005_RLatLon0.09_PT065H.grib2 2026-05-02 08:58 380K
20260502T06Z_MSC_RDPS_WindDir_IsbL-0010_RLatLon0.09_PT065H.grib2 2026-05-02 08:58 392K
20260502T06Z_MSC_RDPS_WindDir_IsbL-0020_RLatLon0.09_PT065H.grib2 2026-05-02 08:58 426K
20260502T06Z_MSC_RDPS_WindDir_IsbL-0030_RLatLon0.09_PT065H.grib2 2026-05-02 08:58 422K
20260502T06Z_MSC_RDPS_WindDir_IsbL-0050_RLatLon0.09_PT065H.grib2 2026-05-02 08:58 417K
20260502T06Z_MSC_RDPS_WindDir_IsbL-0100_RLatLon0.09_PT065H.grib2 2026-05-02 08:58 411K
20260502T06Z_MSC_RDPS_WindDir_IsbL-0150_RLatLon0.09_PT065H.grib2 2026-05-02 08:58 406K
20260502T06Z_MSC_RDPS_WindDir_IsbL-0175_RLatLon0.09_PT065H.grib2 2026-05-02 08:58 432K
20260502T06Z_MSC_RDPS_WindDir_IsbL-0200_RLatLon0.09_PT065H.grib2 2026-05-02 08:58 446K
20260502T06Z_MSC_RDPS_WindDir_IsbL-0225_RLatLon0.09_PT065H.grib2 2026-05-02 08:58 451K
20260502T06Z_MSC_RDPS_WindDir_IsbL-0250_RLatLon0.09_PT065H.grib2 2026-05-02 08:58 451K
20260502T06Z_MSC_RDPS_WindDir_IsbL-0275_RLatLon0.09_PT065H.grib2 2026-05-02 08:58 470K
20260502T06Z_MSC_RDPS_WindDir_IsbL-0300_RLatLon0.09_PT065H.grib2 2026-05-02 08:58 468K
20260502T06Z_MSC_RDPS_WindDir_IsbL-0350_RLatLon0.09_PT065H.grib2 2026-05-02 08:58 495K
20260502T06Z_MSC_RDPS_WindDir_IsbL-0400_RLatLon0.09_PT065H.grib2 2026-05-02 08:58 513K
20260502T06Z_MSC_RDPS_WindDir_IsbL-0450_RLatLon0.09_PT065H.grib2 2026-05-02 08:58 528K
20260502T06Z_MSC_RDPS_WindDir_IsbL-0500_RLatLon0.09_PT065H.grib2 2026-05-02 08:58 535K
20260502T06Z_MSC_RDPS_WindDir_IsbL-0550_RLatLon0.09_PT065H.grib2 2026-05-02 08:58 553K
20260502T06Z_MSC_RDPS_WindDir_IsbL-0600_RLatLon0.09_PT065H.grib2 2026-05-02 08:58 576K
20260502T06Z_MSC_RDPS_WindDir_IsbL-0650_RLatLon0.09_PT065H.grib2 2026-05-02 08:58 614K
20260502T06Z_MSC_RDPS_WindDir_IsbL-0700_RLatLon0.09_PT065H.grib2 2026-05-02 08:58 655K
20260502T06Z_MSC_RDPS_WindDir_IsbL-0750_RLatLon0.09_PT065H.grib2 2026-05-02 08:58 703K
20260502T06Z_MSC_RDPS_WindDir_IsbL-0800_RLatLon0.09_PT065H.grib2 2026-05-02 08:58 771K
20260502T06Z_MSC_RDPS_WindDir_IsbL-0850_RLatLon0.09_PT065H.grib2 2026-05-02 08:58 859K
20260502T06Z_MSC_RDPS_WindDir_IsbL-0875_RLatLon0.09_PT065H.grib2 2026-05-02 08:58 892K
20260502T06Z_MSC_RDPS_WindDir_IsbL-0900_RLatLon0.09_PT065H.grib2 2026-05-02 08:58 905K
20260502T06Z_MSC_RDPS_WindDir_IsbL-0925_RLatLon0.09_PT065H.grib2 2026-05-02 08:58 905K
20260502T06Z_MSC_RDPS_WindDir_IsbL-0950_RLatLon0.09_PT065H.grib2 2026-05-02 08:58 901K
20260502T06Z_MSC_RDPS_WindDir_IsbL-0970_RLatLon0.09_PT065H.grib2 2026-05-02 08:58 903K
20260502T06Z_MSC_RDPS_WindDir_IsbL-0985_RLatLon0.09_PT065H.grib2 2026-05-02 08:58 912K
20260502T06Z_MSC_RDPS_WindDir_IsbL-1000_RLatLon0.09_PT065H.grib2 2026-05-02 08:58 924K
20260502T06Z_MSC_RDPS_WindDir_IsbL-1015_RLatLon0.09_PT065H.grib2 2026-05-02 08:58 939K
20260502T06Z_MSC_RDPS_WindGust-Max_AGL-10m_RLatLon0.09_PT065H.grib2 2026-05-02 08:58 955K
20260502T06Z_MSC_RDPS_WindGust-Min_AGL-10m_RLatLon0.09_PT065H.grib2 2026-05-02 08:58 1.0M
20260502T06Z_MSC_RDPS_WindGust_AGL-10m_RLatLon0.09_PT065H.grib2 2026-05-02 08:58 1.0M
20260502T06Z_MSC_RDPS_WindSpeed_AGL-10m_RLatLon0.09_PT065H.grib2 2026-05-02 08:58 845K
20260502T06Z_MSC_RDPS_WindSpeed_AGL-120m_RLatLon0.09_PT065H.grib2 2026-05-02 08:58 535K
20260502T06Z_MSC_RDPS_WindSpeed_AGL-40m_RLatLon0.09_PT065H.grib2 2026-05-02 08:58 544K
20260502T06Z_MSC_RDPS_WindSpeed_AGL-80m_RLatLon0.09_PT065H.grib2 2026-05-02 08:58 538K
20260502T06Z_MSC_RDPS_WindSpeed_IsbL-0001_RLatLon0.09_PT065H.grib2 2026-05-02 08:58 338K
20260502T06Z_MSC_RDPS_WindSpeed_IsbL-0005_RLatLon0.09_PT065H.grib2 2026-05-02 08:58 350K
20260502T06Z_MSC_RDPS_WindSpeed_IsbL-0010_RLatLon0.09_PT065H.grib2 2026-05-02 08:58 365K
20260502T06Z_MSC_RDPS_WindSpeed_IsbL-0020_RLatLon0.09_PT065H.grib2 2026-05-02 08:58 421K
20260502T06Z_MSC_RDPS_WindSpeed_IsbL-0030_RLatLon0.09_PT065H.grib2 2026-05-02 08:58 323K
20260502T06Z_MSC_RDPS_WindSpeed_IsbL-0050_RLatLon0.09_PT065H.grib2 2026-05-02 08:58 354K
20260502T06Z_MSC_RDPS_WindSpeed_IsbL-0100_RLatLon0.09_PT065H.grib2 2026-05-02 08:58 486K
20260502T06Z_MSC_RDPS_WindSpeed_IsbL-0150_RLatLon0.09_PT065H.grib2 2026-05-02 08:58 388K
20260502T06Z_MSC_RDPS_WindSpeed_IsbL-0175_RLatLon0.09_PT065H.grib2 2026-05-02 08:58 433K
20260502T06Z_MSC_RDPS_WindSpeed_IsbL-0200_RLatLon0.09_PT065H.grib2 2026-05-02 08:58 447K
20260502T06Z_MSC_RDPS_WindSpeed_IsbL-0225_RLatLon0.09_PT065H.grib2 2026-05-02 08:58 453K
20260502T06Z_MSC_RDPS_WindSpeed_IsbL-0250_RLatLon0.09_PT065H.grib2 2026-05-02 08:58 457K
20260502T06Z_MSC_RDPS_WindSpeed_IsbL-0275_RLatLon0.09_PT065H.grib2 2026-05-02 08:58 473K
20260502T06Z_MSC_RDPS_WindSpeed_IsbL-0300_RLatLon0.09_PT065H.grib2 2026-05-02 08:58 471K
20260502T06Z_MSC_RDPS_WindSpeed_IsbL-0350_RLatLon0.09_PT065H.grib2 2026-05-02 08:58 482K
20260502T06Z_MSC_RDPS_WindSpeed_IsbL-0400_RLatLon0.09_PT065H.grib2 2026-05-02 08:58 483K
20260502T06Z_MSC_RDPS_WindSpeed_IsbL-0450_RLatLon0.09_PT065H.grib2 2026-05-02 08:58 467K
20260502T06Z_MSC_RDPS_WindSpeed_IsbL-0500_RLatLon0.09_PT065H.grib2 2026-05-02 08:58 470K
20260502T06Z_MSC_RDPS_WindSpeed_IsbL-0550_RLatLon0.09_PT065H.grib2 2026-05-02 08:58 589K
20260502T06Z_MSC_RDPS_WindSpeed_IsbL-0600_RLatLon0.09_PT065H.grib2 2026-05-02 08:58 599K
20260502T06Z_MSC_RDPS_WindSpeed_IsbL-0650_RLatLon0.09_PT065H.grib2 2026-05-02 08:58 617K
20260502T06Z_MSC_RDPS_WindSpeed_IsbL-0700_RLatLon0.09_PT065H.grib2 2026-05-02 08:58 682K
20260502T06Z_MSC_RDPS_WindSpeed_IsbL-0750_RLatLon0.09_PT065H.grib2 2026-05-02 08:58 708K
20260502T06Z_MSC_RDPS_WindSpeed_IsbL-0800_RLatLon0.09_PT065H.grib2 2026-05-02 08:58 757K
20260502T06Z_MSC_RDPS_WindSpeed_IsbL-0850_RLatLon0.09_PT065H.grib2 2026-05-02 08:58 824K
20260502T06Z_MSC_RDPS_WindSpeed_IsbL-0875_RLatLon0.09_PT065H.grib2 2026-05-02 08:58 803K
20260502T06Z_MSC_RDPS_WindSpeed_IsbL-0900_RLatLon0.09_PT065H.grib2 2026-05-02 08:58 864K
20260502T06Z_MSC_RDPS_WindSpeed_IsbL-0925_RLatLon0.09_PT065H.grib2 2026-05-02 08:58 874K
20260502T06Z_MSC_RDPS_WindSpeed_IsbL-0950_RLatLon0.09_PT065H.grib2 2026-05-02 08:58 873K
20260502T06Z_MSC_RDPS_WindSpeed_IsbL-0970_RLatLon0.09_PT065H.grib2 2026-05-02 08:58 867K
20260502T06Z_MSC_RDPS_WindSpeed_IsbL-0985_RLatLon0.09_PT065H.grib2 2026-05-02 08:58 861K
20260502T06Z_MSC_RDPS_WindSpeed_IsbL-1000_RLatLon0.09_PT065H.grib2 2026-05-02 08:58 854K
20260502T06Z_MSC_RDPS_WindSpeed_IsbL-1015_RLatLon0.09_PT065H.grib2 2026-05-02 08:58 846K
20260502T06Z_MSC_RDPS_WindU_AGL-10m_RLatLon0.09_PT065H.grib2 2026-05-02 08:58 434K
20260502T06Z_MSC_RDPS_WindU_AGL-120m_RLatLon0.09_PT065H.grib2 2026-05-02 08:58 531K
20260502T06Z_MSC_RDPS_WindU_AGL-40m_RLatLon0.09_PT065H.grib2 2026-05-02 08:58 537K
20260502T06Z_MSC_RDPS_WindU_AGL-80m_RLatLon0.09_PT065H.grib2 2026-05-02 08:58 533K
20260502T06Z_MSC_RDPS_WindU_IsbL-0001_RLatLon0.09_PT065H.grib2 2026-05-02 08:58 296K
20260502T06Z_MSC_RDPS_WindU_IsbL-0005_RLatLon0.09_PT065H.grib2 2026-05-02 08:58 287K
20260502T06Z_MSC_RDPS_WindU_IsbL-0010_RLatLon0.09_PT065H.grib2 2026-05-02 08:58 298K
20260502T06Z_MSC_RDPS_WindU_IsbL-0020_RLatLon0.09_PT065H.grib2 2026-05-02 08:58 317K
20260502T06Z_MSC_RDPS_WindU_IsbL-0030_RLatLon0.09_PT065H.grib2 2026-05-02 08:58 355K
20260502T06Z_MSC_RDPS_WindU_IsbL-0050_RLatLon0.09_PT065H.grib2 2026-05-02 08:58 384K
20260502T06Z_MSC_RDPS_WindU_IsbL-0100_RLatLon0.09_PT065H.grib2 2026-05-02 08:58 440K
20260502T06Z_MSC_RDPS_WindU_IsbL-0150_RLatLon0.09_PT065H.grib2 2026-05-02 08:58 404K
20260502T06Z_MSC_RDPS_WindU_IsbL-0175_RLatLon0.09_PT065H.grib2 2026-05-02 08:58 426K
20260502T06Z_MSC_RDPS_WindU_IsbL-0200_RLatLon0.09_PT065H.grib2 2026-05-02 08:58 440K
20260502T06Z_MSC_RDPS_WindU_IsbL-0225_RLatLon0.09_PT065H.grib2 2026-05-02 08:58 345K
20260502T06Z_MSC_RDPS_WindU_IsbL-0250_RLatLon0.09_PT065H.grib2 2026-05-02 08:58 347K
20260502T06Z_MSC_RDPS_WindU_IsbL-0275_RLatLon0.09_PT065H.grib2 2026-05-02 08:58 360K
20260502T06Z_MSC_RDPS_WindU_IsbL-0300_RLatLon0.09_PT065H.grib2 2026-05-02 08:58 357K
20260502T06Z_MSC_RDPS_WindU_IsbL-0350_RLatLon0.09_PT065H.grib2 2026-05-02 08:58 366K
20260502T06Z_MSC_RDPS_WindU_IsbL-0400_RLatLon0.09_PT065H.grib2 2026-05-02 08:58 472K
20260502T06Z_MSC_RDPS_WindU_IsbL-0450_RLatLon0.09_PT065H.grib2 2026-05-02 08:58 473K
20260502T06Z_MSC_RDPS_WindU_IsbL-0500_RLatLon0.09_PT065H.grib2 2026-05-02 08:58 475K
20260502T06Z_MSC_RDPS_WindU_IsbL-0550_RLatLon0.09_PT065H.grib2 2026-05-02 08:58 477K
20260502T06Z_MSC_RDPS_WindU_IsbL-0600_RLatLon0.09_PT065H.grib2 2026-05-02 08:58 487K
20260502T06Z_MSC_RDPS_WindU_IsbL-0650_RLatLon0.09_PT065H.grib2 2026-05-02 08:58 503K
20260502T06Z_MSC_RDPS_WindU_IsbL-0700_RLatLon0.09_PT065H.grib2 2026-05-02 08:58 508K
20260502T06Z_MSC_RDPS_WindU_IsbL-0750_RLatLon0.09_PT065H.grib2 2026-05-02 08:58 532K
20260502T06Z_MSC_RDPS_WindU_IsbL-0800_RLatLon0.09_PT065H.grib2 2026-05-02 08:58 573K
20260502T06Z_MSC_RDPS_WindU_IsbL-0850_RLatLon0.09_PT065H.grib2 2026-05-02 08:58 631K
20260502T06Z_MSC_RDPS_WindU_IsbL-0875_RLatLon0.09_PT065H.grib2 2026-05-02 08:58 652K
20260502T06Z_MSC_RDPS_WindU_IsbL-0900_RLatLon0.09_PT065H.grib2 2026-05-02 08:58 661K
20260502T06Z_MSC_RDPS_WindU_IsbL-0925_RLatLon0.09_PT065H.grib2 2026-05-02 08:58 666K
20260502T06Z_MSC_RDPS_WindU_IsbL-0950_RLatLon0.09_PT065H.grib2 2026-05-02 08:58 661K
20260502T06Z_MSC_RDPS_WindU_IsbL-0970_RLatLon0.09_PT065H.grib2 2026-05-02 08:58 656K
20260502T06Z_MSC_RDPS_WindU_IsbL-0985_RLatLon0.09_PT065H.grib2 2026-05-02 08:58 792K
20260502T06Z_MSC_RDPS_WindU_IsbL-1000_RLatLon0.09_PT065H.grib2 2026-05-02 08:58 786K
20260502T06Z_MSC_RDPS_WindU_IsbL-1015_RLatLon0.09_PT065H.grib2 2026-05-02 08:58 828K
20260502T06Z_MSC_RDPS_WindV_AGL-10m_RLatLon0.09_PT065H.grib2 2026-05-02 08:58 436K
20260502T06Z_MSC_RDPS_WindV_AGL-120m_RLatLon0.09_PT065H.grib2 2026-05-02 08:58 416K
20260502T06Z_MSC_RDPS_WindV_AGL-40m_RLatLon0.09_PT065H.grib2 2026-05-02 08:58 540K
20260502T06Z_MSC_RDPS_WindV_AGL-80m_RLatLon0.09_PT065H.grib2 2026-05-02 08:58 535K
20260502T06Z_MSC_RDPS_WindV_IsbL-0001_RLatLon0.09_PT065H.grib2 2026-05-02 08:58 250K
20260502T06Z_MSC_RDPS_WindV_IsbL-0005_RLatLon0.09_PT065H.grib2 2026-05-02 08:58 291K
20260502T06Z_MSC_RDPS_WindV_IsbL-0010_RLatLon0.09_PT065H.grib2 2026-05-02 08:58 301K
20260502T06Z_MSC_RDPS_WindV_IsbL-0020_RLatLon0.09_PT065H.grib2 2026-05-02 08:58 319K
20260502T06Z_MSC_RDPS_WindV_IsbL-0030_RLatLon0.09_PT065H.grib2 2026-05-02 08:58 318K
20260502T06Z_MSC_RDPS_WindV_IsbL-0050_RLatLon0.09_PT065H.grib2 2026-05-02 08:58 349K
20260502T06Z_MSC_RDPS_WindV_IsbL-0100_RLatLon0.09_PT065H.grib2 2026-05-02 08:58 340K
20260502T06Z_MSC_RDPS_WindV_IsbL-0150_RLatLon0.09_PT065H.grib2 2026-05-02 08:58 401K
20260502T06Z_MSC_RDPS_WindV_IsbL-0175_RLatLon0.09_PT065H.grib2 2026-05-02 08:58 329K
20260502T06Z_MSC_RDPS_WindV_IsbL-0200_RLatLon0.09_PT065H.grib2 2026-05-02 08:58 364K
20260502T06Z_MSC_RDPS_WindV_IsbL-0225_RLatLon0.09_PT065H.grib2 2026-05-02 08:58 369K
20260502T06Z_MSC_RDPS_WindV_IsbL-0250_RLatLon0.09_PT065H.grib2 2026-05-02 08:58 371K
20260502T06Z_MSC_RDPS_WindV_IsbL-0275_RLatLon0.09_PT065H.grib2 2026-05-02 08:58 383K
20260502T06Z_MSC_RDPS_WindV_IsbL-0300_RLatLon0.09_PT065H.grib2 2026-05-02 08:58 381K
20260502T06Z_MSC_RDPS_WindV_IsbL-0350_RLatLon0.09_PT065H.grib2 2026-05-02 08:58 388K
20260502T06Z_MSC_RDPS_WindV_IsbL-0400_RLatLon0.09_PT065H.grib2 2026-05-02 08:58 365K
20260502T06Z_MSC_RDPS_WindV_IsbL-0450_RLatLon0.09_PT065H.grib2 2026-05-02 08:58 367K
20260502T06Z_MSC_RDPS_WindV_IsbL-0500_RLatLon0.09_PT065H.grib2 2026-05-02 08:58 472K
20260502T06Z_MSC_RDPS_WindV_IsbL-0550_RLatLon0.09_PT065H.grib2 2026-05-02 08:58 474K
20260502T06Z_MSC_RDPS_WindV_IsbL-0600_RLatLon0.09_PT065H.grib2 2026-05-02 08:58 484K
20260502T06Z_MSC_RDPS_WindV_IsbL-0650_RLatLon0.09_PT065H.grib2 2026-05-02 08:58 500K
20260502T06Z_MSC_RDPS_WindV_IsbL-0700_RLatLon0.09_PT065H.grib2 2026-05-02 08:58 519K
20260502T06Z_MSC_RDPS_WindV_IsbL-0750_RLatLon0.09_PT065H.grib2 2026-05-02 08:58 540K
20260502T06Z_MSC_RDPS_WindV_IsbL-0800_RLatLon0.09_PT065H.grib2 2026-05-02 08:58 579K
20260502T06Z_MSC_RDPS_WindV_IsbL-0850_RLatLon0.09_PT065H.grib2 2026-05-02 08:58 624K
20260502T06Z_MSC_RDPS_WindV_IsbL-0875_RLatLon0.09_PT065H.grib2 2026-05-02 08:58 647K
20260502T06Z_MSC_RDPS_WindV_IsbL-0900_RLatLon0.09_PT065H.grib2 2026-05-02 08:58 660K
20260502T06Z_MSC_RDPS_WindV_IsbL-0925_RLatLon0.09_PT065H.grib2 2026-05-02 08:58 667K
20260502T06Z_MSC_RDPS_WindV_IsbL-0950_RLatLon0.09_PT065H.grib2 2026-05-02 08:58 664K
20260502T06Z_MSC_RDPS_WindV_IsbL-0970_RLatLon0.09_PT065H.grib2 2026-05-02 08:58 660K
20260502T06Z_MSC_RDPS_WindV_IsbL-0985_RLatLon0.09_PT065H.grib2 2026-05-02 08:58 797K
20260502T06Z_MSC_RDPS_WindV_IsbL-1000_RLatLon0.09_PT065H.grib2 2026-05-02 08:58 791K
20260502T06Z_MSC_RDPS_WindV_IsbL-1015_RLatLon0.09_PT065H.grib2 2026-05-02 08:58 784K